Novaya Igirma, Russia
Current Conditions -  °F | °C
As of 12:00 AM on Friday 31 Oct 2014 (Local Time) from UIBB Reporting Station
Overcast Overcast  
Wind Chill: 19°   Ceiling: 10000
Heat Index: 27°   Visibility: 3mi
Dew Point: 23°   Wind: 7mph
Humidity: 86%   Direction: 230°SW
Pressure: 29.97"   Gusts: NA
Location:  57.14°N, 103.91°E
Report Text: UIBB 301600Z 23003MPS P5000 SCT020CB OVC100 M03/M05 Q1015 NOSIGRMK QFE719/0958 30820560
Loading
Personal Weather Stations






























Interactive Weather Map
Tropical Storm Tracking
New forecast layout! Learn more

10-Day Weather Forecast

Advertisements
Track Severe Weather on mobile